EDP DISTRIBUIÇÃO MEIA MARATONA DE ÉVORA - 21K

Tabela de Prémios


Dorsal Lugar Nome Sexo Categoria Clube Tempo Oficial Tempo Chip Certificado
5727 10 Joao Pereira M M35 Individual 01:18:19 01:18:16 Descarregar
5696 15 Custódio António M M35 Beja Atlético Clube 01:21:26 01:21:25 Descarregar
5850 16 Rui Rodrigues M M35 Casa do Povo de Mangualde 01:21:28 01:21:26 Descarregar
6001 19 Sergio Lopes M M35 Individual 01:22:02 01:22:02 Descarregar
5866 35 Bruno Santos M M35 Individual 01:24:58 01:24:57 Descarregar
5855 36 Carlos Frade M M35 Individual 01:24:59 01:24:56 Descarregar
5257 37 Pedro Guimarães M M35 Correr Lisboa 01:25:38 01:25:32 Descarregar
5673 38 José Ganso M M35 SCVA/Luís Branco Running Team 01:25:45 01:25:40 Descarregar
5703 52 Estêvão Gonçalves M M35 NAVR 01:27:38 01:27:37 Descarregar
5977 59 Ilidio Janeiro M M35 Individual 01:28:40 01:28:36 Descarregar
6047 63 Nuno Morgado M M35 Individual 01:28:56 01:28:52 Descarregar
5287 66 Eurico Lopes M M35 AZARUJABTT 01:29:03 01:28:59 Descarregar
5867 67 Luís Cortinhas M M35 G.D.R. São Francisco da Serra 01:29:06 01:28:50 Descarregar
5201 69 Vitor Marques M M35 Individual 01:29:21 01:29:01 Descarregar
5472 79 David Ramalho M M35 Individual 01:30:31 01:30:25 Descarregar
5606 90 Daniel Machado M M35 TE Runners 01:31:21 01:31:19 Descarregar
5621 100 Guilhermino Meireles M M35 CTM Vila Pouca de Aguiar 01:32:26 01:32:22 Descarregar
5292 104 Rui Vale M M35 Correr Lisboa 01:32:34 01:31:41 Descarregar
5142 105 Alípio Trigo M M35 Individual 01:32:41 01:31:52 Descarregar
5580 113 Bruno Felicio M M35 Os Gabrielas 01:33:11 01:32:18 Descarregar
5809 114 Sandro Jordao M M35 Individual 01:33:13 01:33:10 Descarregar
5691 117 Marco Santos M M35 Individual 01:33:26 01:32:59 Descarregar
5769 119 João Figueiredo M M35 Individual 01:33:35 01:32:50 Descarregar
5453 123 Paulo Gomes M M35 Benfica em forma 01:33:48 01:31:57 Descarregar
5773 126 Frederico Lázaro M M35 Individual 01:34:01 01:33:44 Descarregar
5776 127 Joel Simões M M35 Individual 01:34:06 01:33:52 Descarregar
5935 128 Fernando Pires M M35 Individual 01:34:09 01:34:02 Descarregar
6061 142 João Fonseca M M35 Individual 01:35:07 01:34:58 Descarregar
5875 145 Rodolfo Andrade M M35 Individual 01:35:24 01:35:12 Descarregar
5298 151 Nelson Moreira M M35 Individual 01:35:49 01:35:48 Descarregar
5389 168 Hélder Silva M M35 Individual 01:36:50 01:35:42 Descarregar
5877 170 Eduardo Soares M M35 Individual 01:37:04 01:36:51 Descarregar
5311 171 John Dartnell M M35 Individual 01:37:07 01:36:16 Descarregar
5208 179 Bruno Nalha M M35 "C.D.""Os Aguias"" de Alpiarça Trail/Running" 01:37:17 01:37:02 Descarregar
5756 182 Rui Gamito M M35 Juventude Atlético Clube 01:37:35 01:37:12 Descarregar
5369 192 José Pereira M M35 EVERYBODY 01:38:17 01:37:20 Descarregar
5044 204 Marco Gonçalves M M35 SOFTEAM 01:39:08 01:38:21 Descarregar
5630 230 Nuno Paulos M M35 Run Alcáçovas 01:40:45 01:40:28 Descarregar
5013 233 José Duarte M M35 Individual 01:41:02 01:40:27 Descarregar
5542 236 André Varão M M35 CBRUNNING TEAM 01:41:06 01:39:18 Descarregar
5997 241 Nuno Lopes M M35 Individual 01:41:19 01:40:39 Descarregar
5204 259 Pedro Pereira M M35 Individual 01:42:13 01:41:26 Descarregar
5608 262 Paulo Pires M M35 Individual 01:42:21 01:40:52 Descarregar
5518 269 Tiago Guerreiro M M35 Individual 01:42:32 01:42:12 Descarregar
5434 275 Rui Freitas M M35 Individual 01:42:43 01:42:32 Descarregar
5965 279 Antonio Campaniço M M35 Juventude Desportiva das Neves 01:42:50 01:42:29 Descarregar
5536 282 Francisco Almeida M M35 Correr em Évora 01:43:08 01:42:59 Descarregar
5507 283 Mário Silva M M35 Mário Silva 01:43:12 01:41:53 Descarregar
5437 297 Pedro Cortes M M35 Correr Lisboa 01:43:37 01:43:11 Descarregar
5470 300 Pedro Pimpão M M35 Individual 01:43:39 01:43:11 Descarregar
5635 305 Jorge Barros M M35 C. D. Asas do Milénium 01:43:58 01:43:41 Descarregar
5748 309 Nuno Santos M M35 Individual 01:44:13 01:43:32 Descarregar
5441 313 Ricardo Ribeiro M M35 Individual 01:44:27 01:43:32 Descarregar
5589 314 Miguel Augusto M M35 Correr em Évora 01:44:28 01:43:34 Descarregar
5363 323 Jaime Martins M M35 HerbaTeam 01:45:04 01:44:23 Descarregar
5533 327 João Piroleira M M35 Clube SerpaFit Challenge 01:45:14 01:44:01 Descarregar
5103 330 José Gomes M M35 Correr Lisboa 01:45:23 01:43:20 Descarregar
5070 335 Bruno Reis M M35 Individual 01:45:34 01:45:23 Descarregar
5073 336 João Chambino M M35 Individual 01:45:37 01:43:54 Descarregar
6023 340 Bruno Brito M M35 Individual 01:45:49 01:44:54 Descarregar
5425 356 Gil Carneiro M M35 Margil 01:46:31 01:45:34 Descarregar
5308 367 Francisco Zambujo M M35 SingaRunners 01:47:10 01:46:43 Descarregar
5322 371 Edgar Tavares M M35 AZARUJABTT 01:47:20 01:47:15 Descarregar
5495 373 Hugo Monteiro M M35 Ritmus 01:47:27 01:46:53 Descarregar
5465 374 Luis Anselmo M M35 "Grupo Desportivo ""O Independente"" Barreiro" 01:47:29 01:46:43 Descarregar
5382 378 Rodolfo Oliveira M M35 Happy Runners 01:47:38 01:46:20 Descarregar
5496 380 João Rebola M M35 Individual 01:47:44 01:47:36 Descarregar
5793 387 João Rodrigues M M35 Correr em Évora 01:48:11 01:46:43 Descarregar
5577 392 Hugo Orvalho M M35 VETERANOS CRE 01:48:16 01:46:44 Descarregar
5917 395 Marco Pinto M M35 Individual 01:48:22 01:47:08 Descarregar
5795 401 João Simona M M35 Évora Night Runners 01:48:34 01:47:23 Descarregar
5478 403 Carlos Palmeiro M M35 Individual 01:48:52 01:48:38 Descarregar
5399 404 Miguel Pereira M M35 Individual 01:48:54 01:48:51 Descarregar
5513 410 Honorato Coelho M M35 Aves Runners 01:49:09 01:48:15 Descarregar
5252 413 Ricardo Santos M M35 Correr Lisboa 01:49:18 01:47:41 Descarregar
5479 415 João Freire M M35 GURUS 01:49:31 01:49:23 Descarregar
5211 417 Nuno Mota M M35 F4Run 01:49:43 01:49:06 Descarregar
5664 419 Hugo Mendes M M35 Individual 01:49:49 01:48:14 Descarregar
5260 426 Paulo Lopes M M35 Alverca Urban Runners 01:50:09 01:48:35 Descarregar
5936 432 Guilherme Baron M M35 Individual 01:50:24 01:49:11 Descarregar
6016 435 Rodolfo Silva M M35 Individual 01:50:38 01:50:28 Descarregar
5248 445 Luís Santos M M35 Correr Lisboa 01:50:55 01:50:00 Descarregar
5760 446 João Lança M M35 Individual 01:50:55 01:49:03 Descarregar
5591 448 Mário Antonio M M35 Individual 01:51:03 01:49:04 Descarregar
5622 449 Sérgio Vilela M M35 CTM Vila Pouca de Aguiar 01:51:09 01:50:39 Descarregar
5668 458 Bruno Lourenço M M35 Individual 01:51:24 01:50:56 Descarregar
5182 461 António Cnovas M M35 Individual 01:51:38 01:50:00 Descarregar
5838 465 Nuno Carampanta M M35 SL Almada 01:51:46 01:51:28 Descarregar
5818 470 Carlos Simões M M35 Individual 01:52:11 01:50:59 Descarregar
5124 471 Pedro Lopes M M35 Individual 01:52:13 01:50:21 Descarregar
5487 472 José Berrucho M M35 Individual 01:52:14 01:50:12 Descarregar
5293 483 Manuel Galhardas M M35 Individual 01:52:40 01:52:36 Descarregar
5098 484 Sérgio Costa M M35 Run & Bota-abaixo 01:52:51 01:52:09 Descarregar
5715 485 André António M M35 Évora Night Runners 01:52:53 01:52:11 Descarregar
6052 492 João Alexandre M M35 Individual 01:53:16 01:52:45 Descarregar
5014 500 Jorge Rocha M M35 Amigos do Atletismo de Avis 01:53:56 01:52:34 Descarregar
5619 503 César Sousa M M35 CTM Vila Pouca de Aguiar 01:54:02 01:53:28 Descarregar
5272 504 Paulo Cesar M M35 AZARUJABTT 01:54:03 01:53:59 Descarregar
5755 506 Paulo Pereira M M35 Juventude Atlético Clube 01:54:05 01:53:42 Descarregar
5912 509 Nuno Carvalho M M35 Individual 01:54:09 01:53:36 Descarregar
6064 511 Pedro Caetano M M35 Individual 01:54:15 01:54:06 Descarregar
5861 513 Luís Painha M M35 Individual 01:54:31 01:52:35 Descarregar
5654 514 Joaquim Rabasqueira M M35 Individual 01:54:45 01:54:31 Descarregar
5974 519 Marcos Pinto M M35 Individual 01:54:59 01:54:59 Descarregar
5540 520 Gabriel Almeida M M35 Individual 01:55:00 01:53:01 Descarregar
5682 524 David Guerreiro M M35 Individual 01:55:20 01:53:20 Descarregar
5244 525 André Carvalho M M35 Individual 01:55:21 01:54:19 Descarregar
5474 528 João Bolinhas M M35 Individual 01:55:28 01:53:43 Descarregar
5959 531 Sérgio Batista M M35 Individual 01:55:35 01:54:47 Descarregar
6042 545 Tiago Bastos M M35 Individual 01:56:13 01:55:43 Descarregar
5905 549 Aníbal Carralas M M35 Individual 01:56:25 01:54:32 Descarregar
5688 551 Rui Arranja M M35 GCDTK 01:56:43 01:55:31 Descarregar
5319 555 Paulo Casais M M35 Alto Trilho (Javalis) 01:56:52 01:56:09 Descarregar
5310 562 Nelson Cristovam M M35 Individual 01:57:27 01:55:53 Descarregar
5628 571 Luís Cid M M35 Run Alcáçovas 01:57:46 01:57:29 Descarregar
5885 579 Marco Baguinho M M35 Individual 01:58:10 01:57:33 Descarregar
5833 583 António Carapau M M35 EVERYBODY 01:58:16 01:56:56 Descarregar
5913 585 Bruno Rentes M M35 Individual 01:58:23 01:57:18 Descarregar
6050 587 José Fernandes M M35 MoreTeam 01:58:41 01:58:35 Descarregar
5573 605 Filipe Santos M M35 Individual 01:59:33 01:58:25 Descarregar
5611 617 Bruno Claro M M35 Individual 02:00:43 01:58:54 Descarregar
5948 623 Vitor Fernandes M M35 Individual 02:01:27 01:59:55 Descarregar
5570 625 César Oliveira M M35 Évora Night Runners 02:01:38 02:00:18 Descarregar
5488 628 Fabiano Ferreira M M35 Benfica em forma 02:01:45 01:59:53 Descarregar
5238 631 Luís Melro M M35 Individual 02:02:03 02:00:51 Descarregar
5320 632 João Afonso M M35 Individual 02:02:04 02:00:51 Descarregar
5354 644 Tó Jerónimo M M35 Run Buddy Run 02:03:05 02:01:30 Descarregar
5970 649 Claudio Oliveira M M35 Individual 02:03:21 02:00:17 Descarregar
5576 652 Sérgio Matos M M35 Individual 02:03:35 02:01:49 Descarregar
5168 656 Nuno Silva M M35 Just Move 02:03:41 02:02:21 Descarregar
5943 662 Rui Cardoso M M35 Individual 02:03:53 02:03:30 Descarregar
5420 665 Ricardo Pato M M35 Harmonia 02:04:13 02:02:48 Descarregar
5745 670 Gonçalo Pedro M M35 Individual 02:04:21 02:03:08 Descarregar
6025 671 Henrique Ventura M M35 Individual 02:04:22 02:03:07 Descarregar
5123 675 Hugo Venâncio M M35 Individual 02:04:32 02:02:40 Descarregar
5915 698 Rui Espanhol M M35 Correr em Évora 02:06:21 02:04:53 Descarregar
5041 701 Hugo Cavacas M M35 Individual 02:07:16 02:06:28 Descarregar
5486 705 Fábio Catarino M M35 RUNNING4FUN 02:07:48 02:07:13 Descarregar
5806 714 Ricardo Ferrão M M35 Individual 02:08:46 02:07:39 Descarregar
5887 717 José Valadas M M35 Individual 02:09:00 02:08:36 Descarregar
5697 719 Luis Mendeiros M M35 Estremoz Run & Fun 02:09:27 02:09:19 Descarregar
5947 731 Joao Nabais M M35 Individual 02:10:24 02:08:57 Descarregar
5958 733 José Patola M M35 Individual 02:10:31 02:10:09 Descarregar
5433 747 Daniel Rodrigues M M35 Individual 02:12:19 02:12:15 Descarregar
5644 757 Paulo Conceição M M35 Individual 02:14:12 02:13:27 Descarregar
5491 768 Ricardo Correia M M35 GURUS 02:17:34 02:17:25 Descarregar
5097 772 Marco Aparício M M35 Run & Bota-abaixo 02:17:56 02:17:13 Descarregar
5501 773 Miguel Pinto M M35 Harmonia 02:17:59 02:16:33 Descarregar
5426 778 Nuno Prates M M35 Rota D´Ossa 02:18:37 02:17:39 Descarregar
5284 787 Tito Teixeira M M35 CLUBE COLABORADORES AGEAS 02:22:02 02:20:36 Descarregar
5213 816 Sérgio Quintela M M35 F4Run 02:41:28 02:40:50 Descarregar